When you browse on this site, cookies collect data to enhance your experience and personalize the content and advertising you see.
Visit our Privacy Policy to learn more. By continuing to use the site, you agree to this use of cookies and data.
  • In Germany
  • List of Countries
  • For 7 days
  • Water Temperature
  • Weather Map
  • Weather Widgets
  • user-avatar
    Login

    Hourly Weather Korçe

    Today, 25 August, Sunday

    Time Temperature Precipitation Wind Pressure Humidity
    00:00 +17°C° 0 mm 2 mps 669 mmHg 60%
    01:00 +17°C° 0 mm 2 mps 669 mmHg 57%
    02:00 +17°C° 0 mm 2 mps 668 mmHg 59%
    03:00 +17°C° 0 mm 2 mps 668 mmHg 61%
    04:00 +17°C° 0 mm 2 mps 668 mmHg 63%
    05:00 +18°C° 0 mm 2 mps 669 mmHg 59%
    06:00 +20°C° 0 mm 2 mps 669 mmHg 55%
    07:00 +23°C° 0 mm 2 mps 670 mmHg 52%
    08:00 +25°C° 0 mm 2 mps 670 mmHg 44%
    09:00 +27°C° 0 mm 2 mps 671 mmHg 37%
    10:00 +30°C° 0 mm 2 mps 672 mmHg 30%
    11:00 +30°C° 0 mm 2 mps 671 mmHg 28%
    12:00 +31°C° 0 mm 2 mps 671 mmHg 26%
    13:00 +32°C° 0 mm 2 mps 671 mmHg 23%
    14:00 +30°C° 0 mm 3 mps 671 mmHg 26%
    15:00 +29°C° 0 mm 3 mps 670 mmHg 29%
    16:00 +28°C° 0 mm 3 mps 670 mmHg 32%
    17:00 +26°C° 0 mm 2 mps 669 mmHg 38%
    18:00 +24°C° 0 mm 2 mps 669 mmHg 44%
    19:00 +22°C° 0 mm 1 mps 668 mmHg 50%
    20:00 +21°C° 0 mm 1 mps 668 mmHg 51%
    21:00 +20°C° 0 mm 1 mps 669 mmHg 52%
    22:00 +20°C° 0 mm 1 mps 669 mmHg 53%
    23:00 +19°C° 0 mm 1 mps 668 mmHg 52%

    Tomorrow, 26 August, Monday

    Time Temperature Precipitation Wind Pressure Humidity
    00:00 +19°C° 0 mm 1 mps 668 mmHg 50%
    01:00 +19°C° 0 mm 1 mps 668 mmHg 49%
    02:00 +19°C° 0 mm 1 mps 668 mmHg 47%
    03:00 +19°C° 0 mm 1 mps 668 mmHg 46%
    04:00 +17°C° 0 mm 2 mps 668 mmHg 44%
    05:00 +19°C° 0 mm 2 mps 669 mmHg 41%
    06:00 +21°C° 0 mm 2 mps 669 mmHg 38%
    07:00 +24°C° 0 mm 2 mps 670 mmHg 34%
    08:00 +26°C° 0 mm 2 mps 670 mmHg 31%
    09:00 +29°C° 0 mm 2 mps 671 mmHg 27%
    10:00 +31°C° 0 mm 3 mps 672 mmHg 24%
    11:00 +31°C° 0 mm 3 mps 672 mmHg 22%
    12:00 +31°C° 0 mm 3 mps 672 mmHg 21%
    13:00 +31°C° 0 mm 3 mps 671 mmHg 20%
    14:00 +30°C° 0 mm 2 mps 671 mmHg 26%
    15:00 +28°C° 0 mm 2 mps 670 mmHg 32%
    16:00 +26°C° 0 mm 2 mps 669 mmHg 38%
    17:00 +25°C° 0 mm 2 mps 669 mmHg 41%
    18:00 +23°C° 0 mm 1 mps 669 mmHg 44%
    19:00 +22°C° 0 mm 1 mps 669 mmHg 47%
    20:00 +21°C° 0 mm 1 mps 669 mmHg 47%
    21:00 +21°C° 0 mm 1 mps 669 mmHg 48%
    22:00 +20°C° 0 mm 1 mps 669 mmHg 49%
    23:00 +20°C° 0 mm 1 mps 669 mmHg 48%

    Day after tomorrow, 27 August, Tuesday

    Time Temperature Precipitation Wind Pressure Humidity
    00:00 +18°C° 0 mm 2 mps 669 mmHg 48%
    01:00 +18°C° 0 mm 2 mps 669 mmHg 47%
    02:00 +18°C° 0 mm 2 mps 668 mmHg 48%
    03:00 +18°C° 0 mm 2 mps 668 mmHg 49%
    04:00 +17°C° 0 mm 2 mps 668 mmHg 50%
    05:00 +19°C° 0 mm 2 mps 669 mmHg 47%
    06:00 +21°C° 0 mm 2 mps 670 mmHg 44%
    07:00 +24°C° 0 mm 1 mps 670 mmHg 41%
    08:00 +26°C° 0 mm 1 mps 671 mmHg 36%
    09:00 +28°C° 0 mm 1 mps 672 mmHg 31%
    10:00 +30°C° 0 mm 1 mps 672 mmHg 26%
    11:00 +29°C° 0 mm 2 mps 672 mmHg 28%
    12:00 +29°C° 0 mm 2 mps 671 mmHg 30%
    13:00 +28°C° 0 mm 2 mps 671 mmHg 32%
    14:00 +27°C° 0.1 mm 2 mps 670 mmHg 37%
    15:00 +25°C° 0.1 mm 2 mps 670 mmHg 43%
    16:00 +24°C° 0.1 mm 2 mps 669 mmHg 49%
    17:00 +21°C° 0.1 mm 2 mps 669 mmHg 54%
    18:00 +21°C° 0.1 mm 1 mps 669 mmHg 59%
    19:00 +20°C° 0.1 mm 1 mps 669 mmHg 64%
    20:00 +19°C° 0 mm 1 mps 669 mmHg 64%
    21:00 +19°C° 0 mm 1 mps 669 mmHg 64%
    22:00 +18°C° 0 mm 1 mps 669 mmHg 65%
    23:00 +18°C° 0 mm 1 mps 669 mmHg 65%

    28 August, Wednesday

    Time Temperature Precipitation Wind Pressure Humidity
    00:00 +18°C° 0 mm 1 mps 669 mmHg 64%
    01:00 +18°C° 0 mm 1 mps 668 mmHg 64%
    02:00 +18°C° 0 mm 1 mps 668 mmHg 64%
    03:00 +18°C° 0 mm 1 mps 668 mmHg 64%
    04:00 +16°C° 0 mm 1 mps 668 mmHg 64%
    05:00 +19°C° 0 mm 1 mps 669 mmHg 59%
    06:00 +21°C° 0 mm 1 mps 669 mmHg 53%
    07:00 +23°C° 0 mm 1 mps 670 mmHg 48%
    08:00 +25°C° 0 mm 1 mps 670 mmHg 41%
    09:00 +28°C° 0 mm 1 mps 671 mmHg 35%
    10:00 +30°C° 0 mm 1 mps 672 mmHg 29%
    11:00 +29°C° 0 mm 1 mps 671 mmHg 29%
    12:00 +29°C° 0 mm 1 mps 671 mmHg 30%
    13:00 +28°C° 0 mm 2 mps 670 mmHg 30%
    14:00 +27°C° 0 mm 2 mps 670 mmHg 33%
    15:00 +27°C° 0 mm 2 mps 670 mmHg 36%
    16:00 +26°C° 0 mm 2 mps 669 mmHg 39%
    17:00 +24°C° 0 mm 1 mps 669 mmHg 44%
    18:00 +23°C° 0 mm 1 mps 668 mmHg 49%
    19:00 +21°C° 0 mm 1 mps 668 mmHg 53%
    20:00 +21°C° 0 mm 1 mps 668 mmHg 55%
    21:00 +20°C° 0 mm 1 mps 668 mmHg 57%
    22:00 +20°C° 0 mm 1 mps 668 mmHg 59%
    23:00 +19°C° 0 mm 1 mps 668 mmHg 59%

    29 August, Thursday

    Time Temperature Precipitation Wind Pressure Humidity
    00:00 +19°C° 0 mm 1 mps 668 mmHg 60%
    01:00 +18°C° 0 mm 1 mps 668 mmHg 61%
    02:00 +18°C° 0 mm 1 mps 668 mmHg 62%
    03:00 +18°C° 0 mm 1 mps 667 mmHg 64%
    04:00 +16°C° 0 mm 1 mps 667 mmHg 65%
    05:00 +19°C° 0 mm 1 mps 668 mmHg 59%
    06:00 +21°C° 0 mm 1 mps 668 mmHg 53%
    07:00 +23°C° 0 mm 1 mps 669 mmHg 47%
    08:00 +25°C° 0 mm 1 mps 669 mmHg 41%
    09:00 +28°C° 0 mm 1 mps 670 mmHg 34%
    10:00 +30°C° 0 mm 1 mps 670 mmHg 28%
    11:00 +29°C° 0 mm 1 mps 670 mmHg 30%
    12:00 +28°C° 0 mm 2 mps 670 mmHg 31%
    13:00 +28°C° 0 mm 2 mps 669 mmHg 33%
    14:00 +27°C° 0 mm 2 mps 669 mmHg 36%
    15:00 +26°C° 0 mm 2 mps 668 mmHg 40%
    16:00 +25°C° 0 mm 2 mps 668 mmHg 44%
    17:00 +24°C° 0 mm 2 mps 668 mmHg 48%
    18:00 +22°C° 0 mm 1 mps 668 mmHg 53%
    19:00 +21°C° 0 mm 1 mps 667 mmHg 57%
    20:00 +20°C° 0 mm 1 mps 667 mmHg 59%
    21:00 +19°C° 0 mm 1 mps 667 mmHg 62%
    22:00 +19°C° 0 mm 1 mps 667 mmHg 64%
    23:00 +18°C° 0 mm 1 mps 667 mmHg 64%

    30 August, Friday

    Time Temperature Precipitation Wind Pressure Humidity
    00:00 +18°C° 0 mm 1 mps 667 mmHg 64%
    01:00 +18°C° 0 mm 1 mps 667 mmHg 64%
    02:00 +16°C° 0 mm 1 mps 667 mmHg 64%
    03:00 +16°C° 0 mm 1 mps 667 mmHg 64%
    04:00 +16°C° 0 mm 1 mps 667 mmHg 64%
    05:00 +19°C° 0 mm 1 mps 667 mmHg 57%
    06:00 +20°C° 0 mm 1 mps 668 mmHg 50%
    07:00 +22°C° 0 mm 1 mps 669 mmHg 43%
    08:00 +25°C° 0 mm 1 mps 669 mmHg 38%
    09:00 +27°C° 0 mm 1 mps 670 mmHg 32%
    10:00 +30°C° 0 mm 1 mps 671 mmHg 27%
    11:00 +29°C° 0 mm 1 mps 671 mmHg 27%
    12:00 +29°C° 0 mm 1 mps 670 mmHg 28%
    13:00 +28°C° 0 mm 2 mps 670 mmHg 28%
    14:00 +28°C° 0.1 mm 2 mps 669 mmHg 32%
    15:00 +27°C° 0.1 mm 2 mps 669 mmHg 36%
    16:00 +26°C° 0.1 mm 2 mps 669 mmHg 40%
    17:00 +24°C° 0.1 mm 2 mps 668 mmHg 47%
    18:00 +22°C° 0.1 mm 1 mps 668 mmHg 55%
    19:00 +21°C° 0.1 mm 1 mps 668 mmHg 62%
    20:00 +20°C° 0 mm 1 mps 668 mmHg 62%
    21:00 +19°C° 0 mm 1 mps 668 mmHg 63%
    22:00 +19°C° 0 mm 1 mps 668 mmHg 64%
    23:00 +18°C° 0 mm 1 mps 668 mmHg 63%
    Show more